TimeEDT,TemperatureF,Dew PointF,Humidity,Sea Level PressureIn,VisibilityMPH,Wind Direction,Wind SpeedMPH,Gust SpeedMPH,PrecipitationIn,Events,Conditions,WindDirDegrees,DateUTC
12:53 AM,69.1,68.0,96,29.99,7.0,ENE,3.5,-,0.00,,Overcast,70,2013-07-28 04:53:00
1:11 AM,69.8,68.0,94,29.99,10.0,ENE,3.5,-,N/A,,Mostly Cloudy,60,2013-07-28 05:11:00
1:53 AM,70.0,69.1,97,29.97,9.0,Calm,Calm,-,N/A,,Overcast,0,2013-07-28 05:53:00
2:05 AM,69.8,69.8,100,29.98,8.0,Calm,Calm,-,N/A,,Overcast,0,2013-07-28 06:05:00
2:29 AM,69.8,69.8,100,29.98,6.0,Calm,Calm,-,0.00,Rain,Light Rain,0,2013-07-28 06:29:00
2:53 AM,70.0,69.1,97,29.97,3.0,Calm,Calm,-,0.05,Rain,Rain,0,2013-07-28 06:53:00
3:53 AM,71.1,70.0,96,29.95,6.0,Calm,Calm,-,0.01,,Overcast,0,2013-07-28 07:53:00
4:27 AM,69.8,69.8,100,29.95,2.5,Calm,Calm,-,0.06,Rain,Rain,0,2013-07-28 08:27:00
4:34 AM,69.8,69.8,100,29.95,4.0,North,3.5,-,0.07,Rain,Light Rain,350,2013-07-28 08:34:00
4:53 AM,70.0,70.0,100,29.96,3.0,Calm,Calm,-,0.10,Rain,Rain,0,2013-07-28 08:53:00
5:09 AM,71.6,69.8,94,29.95,5.0,North,3.5,-,0.02,Rain,Light Rain,360,2013-07-28 09:09:00
5:16 AM,71.6,69.8,94,29.95,5.0,NNE,3.5,-,0.02,Rain,Light Rain,20,2013-07-28 09:16:00
5:53 AM,71.1,70.0,96,29.95,5.0,Calm,Calm,-,0.02,,Overcast,0,2013-07-28 09:53:00
6:53 AM,72.0,71.1,97,29.96,2.0,Calm,Calm,-,N/A,,Overcast,0,2013-07-28 10:53:00
7:53 AM,72.0,71.1,97,29.97,2.0,Calm,Calm,-,0.02,Rain,Light Rain,0,2013-07-28 11:53:00
8:53 AM,73.0,72.0,96,29.96,2.0,Calm,Calm,-,0.00,,Overcast,0,2013-07-28 12:53:00
9:53 AM,73.9,72.0,93,29.97,5.0,Calm,Calm,-,N/A,,Overcast,0,2013-07-28 13:53:00
10:24 AM,73.4,71.6,94,29.98,6.0,NW,3.5,-,N/A,,Overcast,310,2013-07-28 14:24:00
10:53 AM,73.9,71.1,91,29.98,7.0,NW,5.8,-,N/A,,Overcast,310,2013-07-28 14:53:00
11:53 AM,75.0,71.1,87,29.98,10.0,Variable,3.5,-,N/A,,Overcast,0,2013-07-28 15:53:00
12:23 PM,78.8,71.6,78,29.98,10.0,Variable,3.5,-,N/A,,Overcast,0,2013-07-28 16:23:00
12:36 PM,78.8,71.6,78,29.98,10.0,Calm,Calm,-,N/A,,Mostly Cloudy,0,2013-07-28 16:36:00
12:53 PM,78.1,70.0,76,29.98,10.0,NE,3.5,-,N/A,,Mostly Cloudy,40,2013-07-28 16:53:00
1:53 PM,80.1,70.0,71,29.96,10.0,East,4.6,-,N/A,,Mostly Cloudy,100,2013-07-28 17:53:00
2:53 PM,79.0,72.0,79,29.96,10.0,South,10.4,-,0.01,,Mostly Cloudy,180,2013-07-28 18:53:00
3:53 PM,77.0,70.0,79,29.98,10.0,SSW,11.5,-,N/A,,Scattered Clouds,200,2013-07-28 19:53:00
4:14 PM,75.2,69.8,83,29.98,10.0,South,9.2,-,N/A,,Mostly Cloudy,190,2013-07-28 20:14:00
4:53 PM,73.9,68.0,82,29.98,10.0,South,10.4,-,N/A,,Scattered Clouds,190,2013-07-28 20:53:00
5:53 PM,73.9,68.0,82,29.97,10.0,SSW,8.1,-,N/A,,Clear,200,2013-07-28 21:53:00
6:53 PM,73.0,68.0,84,29.99,10.0,SSW,6.9,-,N/A,,Clear,200,2013-07-28 22:53:00
7:53 PM,72.0,68.0,87,30.00,10.0,SSW,3.5,-,0.00,,Mostly Cloudy,200,2013-07-28 23:53:00
8:53 PM,71.1,68.0,90,30.00,10.0,Calm,Calm,-,N/A,,Clear,0,2013-07-29 00:53:00
9:53 PM,71.1,69.1,93,30.01,10.0,Calm,Calm,-,0.00,,Partly Cloudy,0,2013-07-29 01:53:00
10:53 PM,70.0,68.0,93,30.01,9.0,SW,3.5,-,0.00,,Partly Cloudy,220,2013-07-29 02:53:00
11:53 PM,70.0,68.0,93,30.01,10.0,South,3.5,-,N/A,,Partly Cloudy,190,2013-07-29 03:53:00